Location: Kerb�bon
(47.7970°N, 3.3487°W)
Time: 12:54:57
(UTC+00:00)

Cosmos 1743 - Pass Details

Date: 12 May 2021
Orbit: 510 x 525 km, 82.6° (Epoch: 18 June)

Event Time Altitude Azimuth Distance (km) Brightness Sun altitude
Rises 22:28:47 0° 350° (N) 2,653 7.7 -20.1°
Reaches altitude 10° 22:30:56 10° 350° (N) 1,763 6.5 -20.2°
Maximum altitude 22:34:48 89° 273° (W) 528 2.6 -20.5°
Enters shadow 22:35:16 68° 175° (S) 565 2.6 -20.5°
